Time,TemperatureF,DewpointF,PressureIn,WindDirection,WindDirectionDegrees,WindSpeedMPH,WindSpeedGustMPH,Humidity,HourlyPrecipIn,Conditions,Clouds,dailyrainin,SoftwareType,DateUTC
2013-02-17 00:13:00,46.3,13.0,30.15,SE,142,2.0,7.0,26,0.00,,,0.00,weatherlink.com 1.10,2013-02-17 06:13:00,
2013-02-17 00:28:00,46.7,12.0,30.15,SE,142,3.0,8.0,25,0.00,,,0.00,weatherlink.com 1.10,2013-02-17 06:28:00,
2013-02-17 00:43:00,46.3,12.0,30.14,SE,142,4.0,7.0,25,0.00,,,0.00,weatherlink.com 1.10,2013-02-17 06:43:00,
2013-02-17 00:58:00,46.3,12.0,30.13,SE,142,4.0,7.0,25,0.00,,,0.00,weatherlink.com 1.10,2013-02-17 06:58:00,
2013-02-17 01:13:00,46.3,11.0,30.13,SE,138,5.0,7.0,24,0.00,,,0.00,weatherlink.com 1.10,2013-02-17 07:13:00,
2013-02-17 01:28:00,46.3,11.0,30.12,SE,138,3.0,7.0,24,0.00,,,0.00,weatherlink.com 1.10,2013-02-17 07:28:00,
2013-02-17 01:43:00,46.9,11.0,30.11,SE,134,6.0,9.0,23,0.00,,,0.00,weatherlink.com 1.10,2013-02-17 07:43:00,
2013-02-17 01:58:00,46.1,11.0,30.11,SE,132,7.0,9.0,24,0.00,,,0.00,weatherlink.com 1.10,2013-02-17 07:58:00,
2013-02-17 02:13:00,45.7,11.0,30.11,SE,127,1.0,5.0,24,0.00,,,0.00,weatherlink.com 1.10,2013-02-17 08:13:00,
2013-02-17 02:28:00,45.0,10.0,30.10,SE,127,1.0,3.0,24,0.00,,,0.00,weatherlink.com 1.10,2013-02-17 08:28:00,
2013-02-17 02:43:00,46.1,10.0,30.09,ESE,119,10.0,14.0,23,0.00,,,0.00,weatherlink.com 1.10,2013-02-17 08:43:00,
2013-02-17 02:58:00,46.5,8.0,30.08,ESE,119,5.0,11.0,21,0.00,,,0.00,weatherlink.com 1.10,2013-02-17 08:58:00,
2013-02-17 03:13:00,46.6,8.0,30.07,ESE,117,7.0,10.0,21,0.00,,,0.00,weatherlink.com 1.10,2013-02-17 09:13:00,
2013-02-17 03:28:00,47.4,8.0,30.07,ESE,116,5.0,11.0,20,0.00,,,0.00,weatherlink.com 1.10,2013-02-17 09:28:00,
2013-02-17 03:43:00,47.5,8.0,30.06,ESE,120,8.0,11.0,20,0.00,,,0.00,weatherlink.com 1.10,2013-02-17 09:43:00,
2013-02-17 03:58:00,47.2,10.0,30.07,ESE,121,3.0,12.0,22,0.00,,,0.00,weatherlink.com 1.10,2013-02-17 09:58:00,
2013-02-17 04:13:00,46.1,10.0,30.06,ESE,121,3.0,9.0,23,0.00,,,0.00,weatherlink.com 1.10,2013-02-17 10:13:00,
2013-02-17 04:28:00,43.9,10.0,30.05,ESE,121,1.0,3.0,25,0.00,,,0.00,weatherlink.com 1.10,2013-02-17 10:28:00,
2013-02-17 04:43:00,42.7,11.0,30.05,ESE,121,3.0,3.0,27,0.00,,,0.00,weatherlink.com 1.10,2013-02-17 10:43:00,
2013-02-17 04:58:00,44.8,10.0,30.05,ESE,121,4.0,9.0,24,0.00,,,0.00,weatherlink.com 1.10,2013-02-17 10:58:00,
2013-02-17 05:13:00,45.3,9.0,30.04,ESE,121,4.0,8.0,23,0.00,,,0.00,weatherlink.com 1.10,2013-02-17 11:13:00,
2013-02-17 05:28:00,45.4,9.0,30.04,ESE,121,2.0,7.0,23,0.00,,,0.00,weatherlink.com 1.10,2013-02-17 11:28:00,
2013-02-17 05:43:00,44.2,9.0,30.03,ESE,121,1.0,4.0,24,0.00,,,0.00,weatherlink.com 1.10,2013-02-17 11:43:00,
2013-02-17 05:59:00,44.0,9.0,30.03,ESE,121,3.0,7.0,24,0.00,,,0.00,weatherlink.com 1.10,2013-02-17 11:59:00,
2013-02-17 06:13:00,44.5,10.0,30.03,ESE,121,3.0,7.0,24,0.00,,,0.00,weatherlink.com 1.10,2013-02-17 12:13:00,
2013-02-17 06:28:00,44.4,10.0,30.03,ESE,121,4.0,7.0,25,0.00,,,0.00,weatherlink.com 1.10,2013-02-17 12:28:00,
2013-02-17 06:43:00,44.3,10.0,30.02,ESE,121,2.0,4.0,25,0.00,,,0.00,weatherlink.com 1.10,2013-02-17 12:43:00,
2013-02-17 06:59:00,44.7,11.0,30.02,ESE,121,0.0,4.0,25,0.00,,,0.00,weatherlink.com 1.10,2013-02-17 12:59:00,
2013-02-17 07:29:00,44.4,10.0,30.01,ESE,121,1.0,4.0,25,0.00,,,0.00,weatherlink.com 1.10,2013-02-17 13:29:00,
2013-02-17 07:44:00,43.9,11.0,30.01,ESE,121,2.0,3.0,26,0.00,,,0.00,weatherlink.com 1.10,2013-02-17 13:44:00,
2013-02-17 07:59:00,44.0,11.0,30.00,ESE,121,4.0,5.0,26,0.00,,,0.00,weatherlink.com 1.10,2013-02-17 13:59:00,
2013-02-17 08:14:00,44.8,11.0,30.00,ESE,121,0.0,3.0,25,0.00,,,0.00,weatherlink.com 1.10,2013-02-17 14:14:00,
2013-02-17 08:29:00,46.6,10.0,30.00,ESE,121,0.0,2.0,23,0.00,,,0.00,weatherlink.com 1.10,2013-02-17 14:29:00,
2013-02-17 08:44:00,48.9,10.0,30.00,ESE,121,0.0,3.0,21,0.00,,,0.00,weatherlink.com 1.10,2013-02-17 14:44:00,
2013-02-17 08:59:00,50.6,12.0,30.00,ESE,121,2.0,4.0,21,0.00,,,0.00,weatherlink.com 1.10,2013-02-17 14:59:00,
2013-02-17 09:14:00,52.9,11.0,30.00,ESE,120,2.0,11.0,19,0.00,,,0.00,weatherlink.com 1.10,2013-02-17 15:14:00,
2013-02-17 09:29:00,54.0,11.0,30.00,ESE,116,4.0,11.0,18,0.00,,,0.00,weatherlink.com 1.10,2013-02-17 15:29:00,
2013-02-17 09:44:00,55.1,12.0,30.00,SSW,193,3.0,10.0,18,0.00,,,0.00,weatherlink.com 1.10,2013-02-17 15:44:00,
2013-02-17 09:59:00,56.2,12.0,30.00,SW,231,1.0,9.0,17,0.00,,,0.00,weatherlink.com 1.10,2013-02-17 15:59:00,
2013-02-17 10:14:00,57.4,13.0,29.99,WSW,238,4.0,9.0,17,0.00,,,0.00,weatherlink.com 1.10,2013-02-17 16:14:00,
2013-02-17 10:30:00,58.8,12.0,29.99,WSW,257,2.0,7.0,16,0.00,,,0.00,weatherlink.com 1.10,2013-02-17 16:30:00,
2013-02-17 10:44:00,60.0,12.0,29.98,ESE,112,12.0,14.0,15,0.00,,,0.00,weatherlink.com 1.10,2013-02-17 16:44:00,
2013-02-17 10:59:00,61.2,11.0,29.97,ESE,114,12.0,14.0,14,0.00,,,0.00,weatherlink.com 1.10,2013-02-17 16:59:00,
2013-02-17 11:14:00,61.8,12.0,29.96,WSW,246,10.0,16.0,14,0.00,,,0.00,weatherlink.com 1.10,2013-02-17 17:14:00,
2013-02-17 11:30:00,62.2,12.0,29.96,SE,135,12.0,12.0,14,0.00,,,0.00,weatherlink.com 1.10,2013-02-17 17:30:00,
2013-02-17 11:45:00,62.7,14.0,29.96,West,264,1.0,12.0,15,0.00,,,0.00,weatherlink.com 1.10,2013-02-17 17:45:00,
2013-02-17 12:00:00,63.5,13.0,29.95,WSW,250,1.0,11.0,14,0.00,,,0.00,weatherlink.com 1.10,2013-02-17 18:00:00,
2013-02-17 12:15:00,62.9,13.0,29.94,West,263,4.0,14.0,14,0.00,,,0.00,weatherlink.com 1.10,2013-02-17 18:15:00,
2013-02-17 12:30:00,64.4,14.0,29.92,ESE,118,9.0,13.0,14,0.00,,,0.00,weatherlink.com 1.10,2013-02-17 18:30:00,
2013-02-17 12:45:00,65.4,13.0,29.91,WSW,255,3.0,18.0,13,0.00,,,0.00,weatherlink.com 1.10,2013-02-17 18:45:00,
2013-02-17 13:00:00,64.9,14.0,29.90,East,101,5.0,13.0,14,0.00,,,0.00,weatherlink.com 1.10,2013-02-17 19:00:00,
2013-02-17 13:15:00,65.8,13.0,29.89,East,98,8.0,15.0,13,0.00,,,0.00,weatherlink.com 1.10,2013-02-17 19:15:00,
2013-02-17 13:30:00,66.7,14.0,29.88,WNW,301,5.0,15.0,13,0.00,,,0.00,weatherlink.com 1.10,2013-02-17 19:30:00,
2013-02-17 13:45:00,67.3,15.0,29.87,West,271,7.0,10.0,13,0.00,,,0.00,weatherlink.com 1.10,2013-02-17 19:45:00,
2013-02-17 14:00:00,66.9,14.0,29.86,South,184,3.0,16.0,13,0.00,,,0.00,weatherlink.com 1.10,2013-02-17 20:00:00,
2013-02-17 14:15:00,66.9,14.0,29.84,West,266,3.0,18.0,13,0.00,,,0.00,weatherlink.com 1.10,2013-02-17 20:15:00,
2013-02-17 14:30:00,66.9,14.0,29.83,West,261,4.0,16.0,13,0.00,,,0.00,weatherlink.com 1.10,2013-02-17 20:30:00,
2013-02-17 14:46:00,68.2,15.0,29.82,WSW,258,6.0,19.0,13,0.00,,,0.00,weatherlink.com 1.10,2013-02-17 20:46:00,
2013-02-17 15:00:00,68.3,15.0,29.82,SSE,147,10.0,17.0,13,0.00,,,0.00,weatherlink.com 1.10,2013-02-17 21:00:00,
2013-02-17 15:15:00,68.7,16.0,29.81,WSW,258,12.0,21.0,13,0.00,,,0.00,weatherlink.com 1.10,2013-02-17 21:15:00,
2013-02-17 15:30:00,68.7,14.0,29.81,SW,236,2.0,18.0,12,0.00,,,0.00,weatherlink.com 1.10,2013-02-17 21:30:00,
2013-02-17 15:45:00,68.8,16.0,29.80,WNW,282,4.0,13.0,13,0.00,,,0.00,weatherlink.com 1.10,2013-02-17 21:45:00,
2013-02-17 16:00:00,69.0,16.0,29.80,ESE,119,3.0,12.0,13,0.00,,,0.00,weatherlink.com 1.10,2013-02-17 22:00:00,
2013-02-17 16:15:00,69.5,15.0,29.79,WSW,243,4.0,10.0,12,0.00,,,0.00,weatherlink.com 1.10,2013-02-17 22:15:00,
2013-02-17 16:31:00,68.8,14.0,29.78,East,92,9.0,16.0,12,0.00,,,0.00,weatherlink.com 1.10,2013-02-17 22:31:00,
2013-02-17 16:45:00,69.5,13.0,29.78,WSW,248,1.0,13.0,11,0.00,,,0.00,weatherlink.com 1.10,2013-02-17 22:45:00,
2013-02-17 17:01:00,69.3,14.0,29.77,West,261,1.0,11.0,12,0.00,,,0.00,weatherlink.com 1.10,2013-02-17 23:01:00,
2013-02-17 17:15:00,68.5,14.0,29.77,SW,227,5.0,11.0,12,0.00,,,0.00,weatherlink.com 1.10,2013-02-17 23:15:00,
2013-02-17 17:31:00,67.3,15.0,29.77,ESE,123,9.0,12.0,13,0.00,,,0.00,weatherlink.com 1.10,2013-02-17 23:31:00,
2013-02-17 17:46:00,67.0,14.0,29.77,ESE,107,3.0,12.0,13,0.00,,,0.00,weatherlink.com 1.10,2013-02-17 23:46:00,
2013-02-17 18:01:00,66.4,16.0,29.77,East,99,2.0,19.0,14,0.00,,,0.00,weatherlink.com 1.10,2013-02-18 00:01:00,
2013-02-17 18:16:00,65.9,14.0,29.77,South,184,3.0,8.0,13,0.00,,,0.00,weatherlink.com 1.10,2013-02-18 00:16:00,
2013-02-17 18:31:00,64.9,13.0,29.77,ESE,120,3.0,11.0,13,0.00,,,0.00,weatherlink.com 1.10,2013-02-18 00:31:00,
2013-02-17 18:46:00,63.1,13.0,29.78,South,171,0.0,5.0,14,0.00,,,0.00,weatherlink.com 1.10,2013-02-18 00:46:00,
2013-02-17 19:01:00,61.4,13.0,29.78,SSE,165,5.0,6.0,15,0.00,,,0.00,weatherlink.com 1.10,2013-02-18 01:01:00,
2013-02-17 19:16:00,60.5,14.0,29.78,SE,144,5.0,7.0,16,0.00,,,0.00,weatherlink.com 1.10,2013-02-18 01:16:00,
2013-02-17 19:31:00,60.9,13.0,29.78,SE,128,6.0,10.0,15,0.00,,,0.00,weatherlink.com 1.10,2013-02-18 01:31:00,
2013-02-17 19:46:00,60.1,14.0,29.77,ESE,121,4.0,8.0,16,0.00,,,0.00,weatherlink.com 1.10,2013-02-18 01:46:00,
2013-02-17 20:01:00,58.8,14.0,29.77,ESE,121,1.0,7.0,17,0.00,,,0.00,weatherlink.com 1.10,2013-02-18 02:01:00,
2013-02-17 20:16:00,58.7,14.0,29.77,SE,138,5.0,10.0,17,0.00,,,0.00,weatherlink.com 1.10,2013-02-18 02:16:00,
2013-02-17 20:31:00,56.4,14.0,29.77,SE,127,9.0,10.0,19,0.00,,,0.00,weatherlink.com 1.10,2013-02-18 02:31:00,
2013-02-17 20:46:00,56.2,15.0,29.77,ESE,117,9.0,11.0,20,0.00,,,0.00,weatherlink.com 1.10,2013-02-18 02:46:00,
2013-02-17 21:01:00,56.2,17.0,29.77,ESE,121,9.0,14.0,21,0.00,,,0.00,weatherlink.com 1.10,2013-02-18 03:01:00,
2013-02-17 21:16:00,55.9,17.0,29.77,SE,130,2.0,9.0,22,0.00,,,0.00,weatherlink.com 1.10,2013-02-18 03:16:00,
2013-02-17 21:31:00,55.3,18.0,29.77,SE,130,4.0,7.0,23,0.00,,,0.00,weatherlink.com 1.10,2013-02-18 03:31:00,
2013-02-17 21:46:00,55.5,18.0,29.77,SE,130,6.0,8.0,23,0.00,,,0.00,weatherlink.com 1.10,2013-02-18 03:46:00,
2013-02-17 22:01:00,55.7,18.0,29.77,ESE,121,9.0,15.0,23,0.00,,,0.00,weatherlink.com 1.10,2013-02-18 04:01:00,
2013-02-17 22:16:00,55.5,19.0,29.77,SE,132,4.0,8.0,24,0.00,,,0.00,weatherlink.com 1.10,2013-02-18 04:16:00,
2013-02-17 22:31:00,55.2,20.0,29.77,SE,128,5.0,10.0,25,0.00,,,0.00,weatherlink.com 1.10,2013-02-18 04:31:00,
2013-02-17 22:46:00,54.8,19.0,29.76,SE,132,3.0,9.0,25,0.00,,,0.00,weatherlink.com 1.10,2013-02-18 04:46:00,
2013-02-17 23:01:00,54.5,19.0,29.77,SE,141,3.0,7.0,25,0.00,,,0.00,weatherlink.com 1.10,2013-02-18 05:01:00,
2013-02-17 23:16:00,55.8,18.0,29.76,ESE,113,2.0,11.0,23,0.00,,,0.00,weatherlink.com 1.10,2013-02-18 05:16:00,
2013-02-17 23:31:00,54.7,17.0,29.76,ESE,113,1.0,1.0,23,0.00,,,0.00,weatherlink.com 1.10,2013-02-18 05:31:00,
2013-02-17 23:46:00,55.5,17.0,29.75,ESE,113,0.0,3.0,22,0.00,,,0.00,weatherlink.com 1.10,2013-02-18 05:46:00,